Location: Karcze
(52.0945°N, 22.4786°E)
Time: 06:20:35
(UTC+00:00)

deb Explorer IX - All Passes

Search period start: 31 July 2021 00:00
Search period end: 10 August 2021 00:00
Orbit: 544 x 1093 km, 38.8° (Epoch: 30 July)

Date Brightness Start Highest point End Pass type
(mag) Time Alt. Az. Time Alt. Az. Time Alt. Az.
31 Jul - 12:36:08 10° SSW 12:39:39 18° SSE 12:43:31 10° ESE daylight
31 Jul - 14:21:07 10° SW 14:25:29 23° S 14:30:19 10° SE daylight
31 Jul - 16:07:39 10° WSW 16:11:24 17° SSW 16:15:24 10° SSE daylight
01 Aug - 12:12:15 10° SSW 12:15:33 17° SSE 12:19:09 10° SE daylight
01 Aug - 13:57:09 10° SW 14:01:20 22° S 14:05:57 10° SE daylight
01 Aug - 15:43:41 10° SW 15:47:13 16° SSW 15:51:01 10° SSE daylight
02 Aug - 11:48:22 10° SSW 11:51:26 16° SSE 11:54:47 10° SE daylight
02 Aug - 13:33:13 10° SW 13:37:11 21° S 13:41:35 10° SE daylight
02 Aug - 15:19:44 10° SW 15:23:03 15° SSW 15:26:36 10° SSE daylight
03 Aug - 11:24:29 10° SSW 11:27:20 15° SSE 11:30:24 10° SE daylight
03 Aug - 13:09:17 10° SW 13:13:03 20° S 13:17:13 10° SE daylight
03 Aug - 14:55:49 10° SW 14:58:53 15° SSW 15:02:11 10° SSE daylight
04 Aug - 11:00:37 10° SSW 11:03:14 15° SSE 11:06:01 10° SE daylight
04 Aug - 12:45:21 10° SW 12:48:55 19° S 12:52:50 10° SE daylight
04 Aug - 14:31:55 10° SW 14:34:43 14° SSW 14:37:43 10° SSE daylight
05 Aug - 10:36:45 10° SSW 10:39:08 14° SSE 10:41:39 10° SE daylight
05 Aug - 12:21:25 10° SW 12:24:47 18° S 12:28:28 10° SE daylight
05 Aug - 14:08:01 10° SW 14:10:33 13° SSW 14:13:14 10° S daylight
06 Aug - 10:12:53 10° SSW 10:15:01 13° SSE 10:17:17 10° SE daylight
06 Aug - 11:57:30 10° SW 12:00:39 18° S 12:04:06 10° SE daylight
06 Aug - 13:44:10 10° SW 13:46:23 13° SSW 13:48:45 10° S daylight
07 Aug - 09:49:00 10° S 09:50:55 13° SSE 09:52:54 10° SE daylight
07 Aug - 11:33:34 10° SW 11:36:31 17° S 11:39:44 10° SE daylight
07 Aug - 13:20:21 10° SW 13:22:14 12° SSW 13:24:13 10° S daylight
08 Aug - 09:25:07 10° S 09:26:48 12° SSE 09:28:32 10° SE daylight
08 Aug - 11:09:38 10° SW 11:12:23 16° S 11:15:22 10° SE daylight
08 Aug - 12:56:34 10° SW 12:58:05 11° SSW 12:59:38 10° S daylight
09 Aug - 09:01:14 10° S 09:02:41 12° SSE 09:04:10 10° SE daylight
09 Aug - 10:45:40 10° SW 10:48:16 15° S 10:51:01 10° SE daylight
09 Aug - 12:32:54 10° SSW 12:33:55 11° SSW 12:34:57 10° S daylight
